Hourly Data Report for May 27, 2021

TOBERMORY RCS
ONTARIO
Current Station Operator: ECCC - MSC

45°14'00.000" N
81°38'00.000" W
213.50 m
6128330
71767
TTR

Download Data

Hourly Data (May 2021)
Hourly Data Report for May 27, 2021
TIME
LST
Temp Definition
°C
Dew Point Definition
°C
Rel Hum Definition
%
Precip. Amount Definition
mm

Wind Dir Definition
10's deg

Wind Spd Definition
km/h
Visibility Definition
km
Stn Press Definition
kPa
Hmdx Definition


Wind Chill Definition


Weather Definition


00:00 6.5 3.8 83 0.0 31 14   99.29     LegendNANA
01:00 6.7 4.1 83 0.0 33 11   99.36     LegendNANA
02:00 7.0 3.2 77 0.0 1 11   99.41     LegendNANA
03:00 6.1 2.0 75 0.0 2 10   99.48     LegendNANA
04:00 5.6 1.0 72 0.0 2 11   99.55     LegendNANA
05:00 4.9 -0.1 70 0.0 2 10   99.61     LegendNANA
06:00 5.4 -0.3 67 0.0 2 13   99.67     LegendNANA
07:00 5.9 -0.9 62 0.0 2 14   99.77     LegendNANA
08:00 6.5 -1.6 56 0.0 4 11   99.80     LegendNANA
09:00 7.0 -0.8 58 0.0 2 10   99.84     LegendNANA
10:00 6.7 -1.4 56 0.0 1 14   99.82     LegendNANA
11:00 7.1 -1.5 54 0.0 3 11   99.89     LegendNANA
12:00 7.1 -1.6 54 0.0 2 12   99.89     LegendNANA
13:00 7.4 -3.2 47 0.0 3 10   99.88     LegendNANA
14:00 8.2 -2.1 48 0.0 1 8   99.86     LegendNANA
15:00 8.8 -1.5 49 0.0 35 5   99.81     LegendNANA
16:00 8.1 -0.5 54 0.0 31 10   99.77     LegendNANA
17:00 7.0 0.4 63 0.0 29 10   99.75     LegendNANA
18:00 6.6 0.7 66 0.0 30 11   99.73     LegendNANA
19:00 6.2 0.5 67 0.0 31 8   99.72     LegendNANA
20:00 5.8 0.6 69 0.0 35 6   99.65     LegendNANA
21:00 5.9 2.2 77 0.0 35 8   99.66     LegendNANA
22:00 5.3 1.8 78 0.0 4 2   99.67     LegendNANA
23:00 5.5 2.4 81 0.0 35 4   99.73     LegendNANA

Notes on Data Quality.

Legend

  • E = Estimated
  • M = Missing
  • NA = Not Available*
  • [empty] = Indicates an unobserved value
Date modified: